When you browse on this site, cookies collect data to enhance your experience and personalize the content and advertising you see.
Visit our Privacy Policy to learn more. By continuing to use the site, you agree to this use of cookies and data.
  • In Lithuania
  • List of Countries
  • For 7 days
  • Water Temperature
  • Satellite Maps
  • Weather Map
  • Weather Widgets
  • user-avatar
    Login

    Hourly Weather Algiers

    Today, 20 February, Wednesday

    Time Temperature Precipitation Wind Pressure Humidity
    00:00 +13°C° 0 mm 1 mps 752 mmHg 59%
    01:00 +13°C° 0 mm 1 mps 752 mmHg 59%
    02:00 +12°C° 0 mm 1 mps 752 mmHg 59%
    03:00 +12°C° 0 mm 1 mps 752 mmHg 59%
    04:00 +12°C° 0 mm 1 mps 752 mmHg 60%
    05:00 +12°C° 0 mm 1 mps 752 mmHg 61%
    06:00 +12°C° 0 mm 1 mps 752 mmHg 62%
    07:00 +13°C° 0 mm 1 mps 752 mmHg 59%
    08:00 +14°C° 0 mm 1 mps 753 mmHg 57%
    09:00 +15°C° 0 mm 1 mps 753 mmHg 55%
    10:00 +16°C° 0 mm 1 mps 753 mmHg 53%
    11:00 +16°C° 0 mm 2 mps 753 mmHg 51%
    12:00 +17°C° 0 mm 2 mps 754 mmHg 49%
    13:00 +17°C° 0 mm 3 mps 753 mmHg 52%
    14:00 +17°C° 0 mm 3 mps 753 mmHg 54%
    15:00 +17°C° 0 mm 3 mps 753 mmHg 57%
    16:00 +16°C° 0 mm 3 mps 753 mmHg 63%
    17:00 +14°C° 0 mm 3 mps 754 mmHg 69%
    18:00 +13°C° 0 mm 2 mps 754 mmHg 74%
    19:00 +13°C° 0 mm 2 mps 754 mmHg 76%
    20:00 +13°C° 0 mm 2 mps 755 mmHg 77%
    21:00 +12°C° 0 mm 1 mps 755 mmHg 78%
    22:00 +12°C° 0 mm 1 mps 755 mmHg 78%
    23:00 +12°C° 0 mm 1 mps 755 mmHg 78%

    Tomorrow, 21 February, Thursday

    Time Temperature Precipitation Wind Pressure Humidity
    00:00 +12°C° 0 mm 1 mps 756 mmHg 78%
    01:00 +12°C° 0 mm 1 mps 756 mmHg 77%
    02:00 +11°C° 0 mm 1 mps 756 mmHg 77%
    03:00 +11°C° 0 mm 1 mps 756 mmHg 76%
    04:00 +11°C° 0 mm 1 mps 756 mmHg 76%
    05:00 +11°C° 0 mm 1 mps 756 mmHg 75%
    06:00 +11°C° 0 mm 1 mps 756 mmHg 75%
    07:00 +12°C° 0 mm 1 mps 757 mmHg 70%
    08:00 +13°C° 0 mm 1 mps 757 mmHg 64%
    09:00 +14°C° 0 mm 1 mps 757 mmHg 59%
    10:00 +15°C° 0 mm 2 mps 757 mmHg 56%
    11:00 +16°C° 0 mm 2 mps 757 mmHg 53%
    12:00 +17°C° 0 mm 3 mps 757 mmHg 50%
    13:00 +17°C° 0 mm 3 mps 757 mmHg 54%
    14:00 +17°C° 0 mm 3 mps 757 mmHg 57%
    15:00 +17°C° 0 mm 4 mps 757 mmHg 60%
    16:00 +16°C° 0 mm 3 mps 757 mmHg 66%
    17:00 +13°C° 0 mm 3 mps 758 mmHg 72%
    18:00 +12°C° 0 mm 3 mps 758 mmHg 78%
    19:00 +13°C° 0 mm 2 mps 758 mmHg 79%
    20:00 +13°C° 0 mm 2 mps 759 mmHg 80%
    21:00 +12°C° 0 mm 1 mps 759 mmHg 80%
    22:00 +12°C° 0 mm 1 mps 759 mmHg 80%
    23:00 +12°C° 0 mm 1 mps 759 mmHg 80%

    Day after tomorrow, 22 February, Friday

    Time Temperature Precipitation Wind Pressure Humidity
    00:00 +12°C° 0 mm 1 mps 759 mmHg 79%
    01:00 +12°C° 0 mm 1 mps 759 mmHg 78%
    02:00 +11°C° 0 mm 1 mps 759 mmHg 77%
    03:00 +11°C° 0 mm 1 mps 759 mmHg 76%
    04:00 +11°C° 0 mm 1 mps 759 mmHg 75%
    05:00 +11°C° 0 mm 1 mps 759 mmHg 74%
    06:00 +11°C° 0 mm 1 mps 759 mmHg 73%
    07:00 +11°C° 0 mm 0 mps 759 mmHg 68%
    08:00 +12°C° 0 mm 0 mps 760 mmHg 64%
    09:00 +13°C° 0 mm 0 mps 760 mmHg 59%
    10:00 +15°C° 0 mm 1 mps 760 mmHg 54%
    11:00 +16°C° 0 mm 1 mps 760 mmHg 50%
    12:00 +18°C° 0 mm 1 mps 759 mmHg 45%
    13:00 +17°C° 0 mm 2 mps 759 mmHg 46%
    14:00 +17°C° 0 mm 2 mps 758 mmHg 48%
    15:00 +17°C° 0 mm 2 mps 758 mmHg 49%
    16:00 +16°C° 0 mm 2 mps 758 mmHg 55%
    17:00 +15°C° 0 mm 1 mps 758 mmHg 61%
    18:00 +13°C° 0 mm 1 mps 758 mmHg 67%
    19:00 +13°C° 0 mm 1 mps 758 mmHg 68%
    20:00 +13°C° 0 mm 1 mps 758 mmHg 69%
    21:00 +12°C° 0 mm 1 mps 759 mmHg 70%
    22:00 +12°C° 0 mm 1 mps 758 mmHg 67%
    23:00 +12°C° 0 mm 1 mps 758 mmHg 64%

    23 February, Saturday

    Time Temperature Precipitation Wind Pressure Humidity
    00:00 +12°C° 0 mm 1 mps 758 mmHg 61%
    01:00 +12°C° 0 mm 1 mps 758 mmHg 59%
    02:00 +11°C° 0 mm 1 mps 758 mmHg 56%
    03:00 +11°C° 0 mm 1 mps 757 mmHg 54%
    04:00 +11°C° 0 mm 1 mps 757 mmHg 50%
    05:00 +11°C° 0 mm 1 mps 757 mmHg 46%
    06:00 +11°C° 0 mm 1 mps 758 mmHg 42%
    07:00 +12°C° 0 mm 1 mps 758 mmHg 40%
    08:00 +14°C° 0 mm 1 mps 758 mmHg 38%
    09:00 +15°C° 0 mm 1 mps 758 mmHg 35%
    10:00 +16°C° 0 mm 1 mps 758 mmHg 33%
    11:00 +18°C° 0 mm 2 mps 758 mmHg 31%
    12:00 +19°C° 0 mm 2 mps 758 mmHg 29%
    13:00 +19°C° 0 mm 2 mps 757 mmHg 30%
    14:00 +19°C° 0 mm 2 mps 757 mmHg 31%
    15:00 +19°C° 0 mm 2 mps 757 mmHg 32%
    16:00 +17°C° 0 mm 2 mps 757 mmHg 38%
    17:00 +16°C° 0 mm 1 mps 757 mmHg 44%
    18:00 +13°C° 0 mm 0 mps 757 mmHg 49%
    19:00 +14°C° 0 mm 1 mps 757 mmHg 48%
    20:00 +14°C° 0 mm 1 mps 757 mmHg 47%
    21:00 +13°C° 0 mm 1 mps 758 mmHg 46%
    22:00 +13°C° 0 mm 1 mps 757 mmHg 44%
    23:00 +13°C° 0 mm 2 mps 757 mmHg 41%

    24 February, Sunday

    Time Temperature Precipitation Wind Pressure Humidity
    00:00 +13°C° 0 mm 2 mps 757 mmHg 39%
    01:00 +12°C° 0 mm 2 mps 757 mmHg 38%
    02:00 +12°C° 0 mm 2 mps 757 mmHg 37%
    03:00 +12°C° 0 mm 2 mps 756 mmHg 36%
    04:00 +12°C° 0 mm 2 mps 756 mmHg 37%
    05:00 +12°C° 0 mm 2 mps 756 mmHg 39%
    06:00 +12°C° 0 mm 2 mps 756 mmHg 40%
    07:00 +13°C° 0 mm 2 mps 757 mmHg 41%
    08:00 +14°C° 0 mm 2 mps 757 mmHg 42%
    09:00 +15°C° 0 mm 2 mps 758 mmHg 44%
    10:00 +16°C° 0 mm 2 mps 758 mmHg 45%
    11:00 +17°C° 0 mm 2 mps 757 mmHg 47%
    12:00 +18°C° 0 mm 3 mps 757 mmHg 49%
    13:00 +17°C° 0 mm 3 mps 757 mmHg 52%
    14:00 +17°C° 0 mm 3 mps 757 mmHg 56%
    15:00 +17°C° 0 mm 3 mps 756 mmHg 60%
    16:00 +16°C° 0 mm 3 mps 757 mmHg 67%
    17:00 +15°C° 0 mm 2 mps 757 mmHg 73%
    18:00 +14°C° 0 mm 2 mps 757 mmHg 80%
    19:00 +13°C° 0 mm 2 mps 757 mmHg 81%
    20:00 +13°C° 0 mm 2 mps 758 mmHg 83%
    21:00 +13°C° 0 mm 2 mps 758 mmHg 84%
    22:00 +12°C° 0 mm 2 mps 758 mmHg 84%
    23:00 +12°C° 0 mm 2 mps 758 mmHg 85%

    25 February, Monday

    Time Temperature Precipitation Wind Pressure Humidity
    00:00 +12°C° 0 mm 2 mps 758 mmHg 85%
    01:00 +12°C° 0 mm 2 mps 758 mmHg 85%
    02:00 +10°C° 0 mm 2 mps 758 mmHg 84%
    03:00 +10°C° 0 mm 3 mps 758 mmHg 84%
    04:00 +10°C° 0 mm 3 mps 758 mmHg 83%
    05:00 +10°C° 0 mm 2 mps 758 mmHg 82%
    06:00 +9°C° 0 mm 2 mps 758 mmHg 81%
    07:00 +12°C° 0 mm 2 mps 758 mmHg 75%
    08:00 +13°C° 0 mm 2 mps 758 mmHg 69%
    09:00 +14°C° 0 mm 2 mps 758 mmHg 62%
    10:00 +14°C° 0 mm 3 mps 758 mmHg 58%
    11:00 +15°C° 0 mm 4 mps 757 mmHg 53%
    12:00 +17°C° 0 mm 4 mps 757 mmHg 49%
    13:00 +16°C° 0 mm 5 mps 756 mmHg 49%
    14:00 +16°C° 0 mm 5 mps 756 mmHg 50%
    15:00 +16°C° 0 mm 6 mps 756 mmHg 50%
    16:00 +15°C° 0 mm 5 mps 755 mmHg 57%
    17:00 +14°C° 0 mm 5 mps 755 mmHg 63%
    18:00 +12°C° 0 mm 5 mps 755 mmHg 69%
    19:00 +12°C° 0 mm 5 mps 755 mmHg 70%
    20:00 +12°C° 0 mm 4 mps 755 mmHg 71%
    21:00 +11°C° 0 mm 4 mps 756 mmHg 73%
    22:00 +11°C° 0 mm 4 mps 755 mmHg 72%
    23:00 +11°C° 0 mm 4 mps 755 mmHg 71%
    Show more